Regional Weather Roundup
Issued by NWS

Home | Current Version | Previous Version | Text Only | Print | Product List | Glossary On
Versions: 1 2 3 4 5 6 7 8 9 10 11 12 13 14 15 16 17 18 19 20 21 22 23 24 25 26 27 28 29 30 31 32 33 34 35 36 37 38 39 40 41 42 43 44 45 46 47 48 49 50
000
ASUS44 KEWX 300010
RWRTX
SOUTH TEXAS REGIONAL WEATHER ROUNDUP
NATIONAL WEATHER SERVICE AUSTIN/SAN ANTONIO TX
700 PM CDT TUE JUL 29 2014

NOTE: "FAIR" INDICATED FEW OR NO CLOUDS BELOW 12,000 FEET WITH NO
SIGNIFICANT WEATHER AND/OR OBSTRUCTIONS TO VISIBILITY.

* - THESE STATIONS ARE NOT NWS OR FAA STATIONS...AND ARE NOT SUBJECT
    TO NWS AND FAA QUALITY CONTROL.

TXZ171-172-183>190-300100-
TEXAS HILL COUNTRY AND EDWARDS PLATEAU

CITY           SKY/WX    TMP DP  RH WIND       PRES   REMARKS
JUNCTION       SUNNY     96  54  24 SE12      30.02S HX  94
6HR MIN TEMP:  91; 6HR MAX TEMP:  98;

*LLANO         CLOUDY    84  68  58 E9G16     30.07F
BURNET         CLOUDY    80  68  66 E13       30.07F
6HR MIN TEMP:  79; 6HR MAX TEMP:  93; 6HR PCP:  0.17;

*HORSESHOE BAY CLOUDY    80  73  79 E5        30.04F
6HR MIN TEMP:  79; 6HR MAX TEMP:  97; 6HR PCP:  0.22;

*KERRVILLE     SUNNY     94  57  28 SE12G17   30.04F HX  93
6HR MIN TEMP:  93; 6HR MAX TEMP:  98;

*FREDERICKSBRG CLOUDY    93  54  26 SE6       30.04S HX  91
6HR MIN TEMP:  92; 6HR MAX TEMP:  98;

*ROCKSPRINGS   SUNNY     91  52  25 SE12G18   30.09S
*BOERNE STAGE  SUNNY     91  54  27 SE5       30.04F
*CASTROVILLE   SUNNY     98  53  22 SE7       30.00F HX  95
HONDO          SUNNY     95  57  27 S13       30.01F HX  94
6HR MIN TEMP:  92; 6HR MAX TEMP:  98;

*UVALDE        SUNNY     98  53  22 S8        29.98F HX  95
6HR MIN TEMP:  93; 6HR MAX TEMP:  99;

DEL RIO        SUNNY    100  55  22 E14G21    29.94F HX  98
6HR MIN TEMP:  95; 6HR MAX TEMP: 102;

LAUGHLIN AFB   SUNNY     99  56  23 E17       29.96F HX  97
6HR MIN TEMP:  94; 6HR MAX TEMP: 100;

CARRIZO SPRGS  SUNNY     99  55  23 SE13      29.93F HX  97
$$

TXZ173-191>194-202-209-217>225-228-300100-
CENTRAL AND SOUTH CENTRAL TEXAS

CITY           SKY/WX    TMP DP  RH WIND       PRES   REMARKS
GEORGETOWN     SUNNY     86  72  62 NE8       30.04F HX  92
AUSTIN/BERGSTM PTSUNNY   91  70  49 NE17      30.01R HX  96
6HR MIN TEMP:  90; 6HR MAX TEMP:  98;

AUSTIN/MABRY   PTSUNNY   88  70  55 E7        30.03S HX  93
6HR MIN TEMP:  88; 6HR MAX TEMP:  97;

*AUSTIN/EXEC   PTSUNNY   86  68  54 E16       30.03F
*LAGO VISTA    PTSUNNY   85  69  59 NE13G23   30.06F
6HR MIN TEMP:  85; 6HR MAX TEMP:  98;

SAN MARCOS     MOSUNNY   91  70  49 E18       30.01R HX  97
6HR MIN TEMP:  91; 6HR MAX TEMP: 100;

NEW BRAUNFELS  SUNNY     97  61  30 E9        29.98S HX  97
6HR MIN TEMP:  95; 6HR MAX TEMP: 100;

RANDOLPH AFB   PTSUNNY   98  58  27 SE13      29.99F HX  97
6HR MIN TEMP:  94; 6HR MAX TEMP: 100;

PT SAN ANTONIO SUNNY     96  59  28 E7        29.98F HX  96
6HR MIN TEMP:  93; 6HR MAX TEMP:  98;

SAN ANTONIO    PTSUNNY   95  61  32 SE9       30.00S HX  95
6HR MIN TEMP:  92; 6HR MAX TEMP:  99;

STINSON FIELD  SUNNY     97  59  28 S6        29.97F HX  96
6HR MIN TEMP:  94; 6HR MAX TEMP: 100;

*PLEASANTON    SUNNY     99  58  25 NE7       29.97S HX  98
6HR MIN TEMP:  94; 6HR MAX TEMP: 101;

*LA GRANGE     MOSUNNY   92  74  56 E9        30.01R HX 101
6HR MIN TEMP:  91; 6HR MAX TEMP:  98;

*GIDDINGS      MOSUNNY   86  67  53 E8        30.07R
6HR MIN TEMP:  86; 6HR MAX TEMP:  95;

*GONZALES      MOSUNNY   98  64  33 E6        29.98R HX 100
6HR MIN TEMP:  95; 6HR MAX TEMP: 101;

$$

TXZ163>164-176>182-195>201-210>213-226-227-235-300100-
SOUTHEAST TEXAS

CITY           SKY/WX    TMP DP  RH WIND       PRES   REMARKS
COLLEGE STN    MOSUNNY   89  70  53 NE9       30.03F HX  94
6HR MIN TEMP:  78; 6HR MAX TEMP:  91; 6HR PCP:  0.14;

*BRYAN         MOSUNNY   87  73  61 E6        30.04S HX  94
*CALDWELL      MOSUNNY   88  72  58 NE7       30.07R HX  94
*CROCKETT      MOSUNNY   88  79  74 CALM      30.07F HX 102
*BRENHAM       MOSUNNY   87  72  61 E7        30.04S HX  94
6HR MIN TEMP:  83; 6HR MAX TEMP:  93; 6HR PCP:  0.03;

HUNTSVILLE     CLOUDY    87  69  54 NE5       30.04F HX  91
6HR MIN TEMP:  87; 6HR MAX TEMP:  94;

CONROE         PTSUNNY   84  73  69 SE3       30.04S HX  90
6HR MIN TEMP:  84; 6HR MAX TEMP:  90;

HOUSTON BUSH   PTSUNNY   84  75  74 SE3       30.03S HX  92
6HR MIN TEMP:  78; 6HR MAX TEMP:  92; 6HR PCP:  0.03;

HOUSTON HOBBY  CLOUDY    81  74  79 CALM      30.03S
6HR MIN TEMP:  78; 6HR MAX TEMP:  94; 6HR PCP:  0.11;

*HOUSTON SW AP CLOUDY    85  72  64 SE5       30.03F HX  90
6HR MIN TEMP:  83; 6HR MAX TEMP:  96;

PEARLAND       CLOUDY    84  70  62 SE3       30.05S
6HR MIN TEMP:  80; 6HR MAX TEMP:  96; 6HR PCP: TRACE;

HOUSTON HOOKS  CLOUDY    85  76  74 E3        30.04R HX  94
6HR MIN TEMP:  78; 6HR MAX TEMP:  86; 6HR PCP:  0.17;

ELLINGTON FLD  PTSUNNY   79  77  94 VRB2      30.04S
SUGAR LAND     CLOUDY    86  73  65 SE7       30.03R HX  93
6HR MIN TEMP:  76; 6HR MAX TEMP:  95; 6HR PCP:  0.30;

*HOUSTON EXEC  CLOUDY    84  75  74 NE7       30.04S HX  92
*CLEVELAND MUN CLOUDY    84  78  81 CALM      30.04S HX  94
6HR MIN TEMP:  82; 6HR MAX TEMP:  90;

*WHARTON       MOSUNNY   82  73  72 S12       30.05S
6HR MIN TEMP:  81; 6HR MAX TEMP:  98;

$$

TXZ214>216-236>238-300100-
THE UPPER TEXAS COAST

CITY           SKY/WX    TMP DP  RH WIND       PRES   REMARKS
*ORANGE        MOSUNNY   87  69  56 N5        30.03F HX  91
6HR MIN TEMP:  85; 6HR MAX TEMP:  90;

PORT ARTHUR    MOSUNNY   87  69  54 NE10      30.02R HX  91
6HR MIN TEMP:  81; 6HR MAX TEMP:  92;

GALVESTON      CLOUDY    85  73  67 S5        30.04S HX  91
6HR MIN TEMP:  84; 6HR MAX TEMP:  94; 6HR PCP: TRACE;

ANGLETON       CLOUDY    76  73  91 CALM      30.03F
6HR MIN TEMP:  74; 6HR MAX TEMP:  95; 6HR PCP:  0.63;

*BAY CITY      DRIZZLE   78  78 100 CALM      30.03F
PALACIOS       PTSUNNY   86  71  60 E9G20     30.04  HX  91
6HR MIN TEMP:  86; 6HR MAX TEMP:  90;

$$

TXZ229>234-239>247-300100-
TEXAS COASTAL BEND AND RIO GRANDE PLAINS

CITY           SKY/WX    TMP DP  RH WIND       PRES   REMARKS
VICTORIA       SUNNY     94  69  44 S14       30.00R HX  99
6HR MIN TEMP:  94; 6HR MAX TEMP: 101;

*BEEVILLE      SUNNY     94  59  30 SE14G20   29.98S HX  94
6HR MIN TEMP:  94; 6HR MAX TEMP: 102;

ROCKPORT       SUNNY     86  74  67 SE13      30.00S HX  94
6HR MIN TEMP:  86; 6HR MAX TEMP:  91;

*PORT ARANSAS  SUNNY     84  77  79 SE10      30.01S HX  93
6HR MIN TEMP:  84; 6HR MAX TEMP:  87;

*PORT LAVACA   SUNNY     89  68  49 SE13      30.01R HX  93
6HR MIN TEMP:  89; 6HR MAX TEMP:  95;

*INGLESIDE     SUNNY     89  73  58 SE14      30.00S HX  97
CORPUS CHRISTI PTSUNNY   91  69  48 SE20      29.99S HX  96
6HR MIN TEMP:  91; 6HR MAX TEMP: 100;

CORPUS NAS     PTSUNNY   87  77  72 SE18      30.00S HX  99
6HR MIN TEMP:  86; 6HR MAX TEMP:  91;

*ROBSTOWN      NOT AVBL
ALICE          SUNNY     96  62  32 SE16G23   29.96S HX  97
6HR MIN TEMP:  96; 6HR MAX TEMP: 103;

KINGSVILLE NAS PTSUNNY   92  72  51 SE20      29.98R HX  99
6HR MIN TEMP:  92; 6HR MAX TEMP: 103;

COTULLA        SUNNY    101  52  19 SE13      29.94F HX  98
6HR MIN TEMP:  94; 6HR MAX TEMP: 102;

*FAITH RANCH   SUNNY    100  50  18 SE12G17   29.95F HX  97
LAREDO         SUNNY    103  56  21 SE10G16   29.95F HX 102
6HR MIN TEMP:  98; 6HR MAX TEMP: 105;

$$

TXZ248>255-300100-
DEEP SOUTH TEXAS

CITY           SKY/WX    TMP DP  RH WIND       PRES   REMARKS
BROWNSVILLE    SUNNY     89  73  59 SE17      29.99S HX  97
6HR MIN TEMP:  89; 6HR MAX TEMP:  96;

PORT ISABEL    SUNNY     87  75  67 E14       29.99F HX  96
6HR MIN TEMP:  87; 6HR MAX TEMP:  98;

*SOUTH PADRE   SUNNY     86  77  74 SE9       30.00S HX  97
HARLINGEN      SUNNY     92  71  50 SE18      29.97R HX  98
6HR MIN TEMP:  92; 6HR MAX TEMP: 101;

*HEBBRONVILLE  SUNNY    100  52  20 E13       29.96F HX  97
MCALLEN        SUNNY     97  66  36 SE16G26   29.95S HX 100



USA.gov is the U.S. government's official web portal to all federal, state and local government web resources and services.